Other Public Products
Issued by NWS Grand Forks, ND

Home | Current Version | Previous Version | Graphics & Text | Print | Product List | Glossary On
Versions: 1 2 3 4 5 6 7 8 9 10 11 12 13 14 15 16 17 18 19 20 21 22 23 24 25 26 27 28 29 30 31 32 33 34 35 36 37 38 39 40 41 42 43 44 45 46 47 48 49 50
000
FPUS83 KFGF 230231
OPUFGF
PRAIRIE TO PINES WEATHER ROUNDUP
NATIONAL WEATHER SERVICE EASTERN NORTH DAKOTA/GRAND FORKS ND
900 PM CDT MON AUG 22 2016

 **SATELLITE DATA USED TO AUGMENT SKY COVER AT AUTOMATED STATIONS**
 *****  WEATHER ACROSS EASTERN NORTH DAKOTA  *****

CITY           SKY/WX    TMP DP  RH WIND       PRES   REMARKS
GRAND FORKS    PTCLDY    75  67  76 SE9       29.67R
GRAND FORKS AF CLEAR     73  67  82 S7        29.68R
GRAND CITY NWS NOT AVBL
BUXTON           N/A     74  73  95 SE7         N/A
DEVILS LAKE    CLEAR     73  69  87 SE7       29.66S
FARGO          CLEAR     78  69  73 SE8       29.68R
WAHPETON ARPT  CLEAR     73  66  78 SE9       29.72R
$$

 *****  WEATHER ACROSS CENTRAL AND WESTERN NORTH DAKOTA  *****

CITY           SKY/WX    TMP DP  RH WIND       PRES   REMARKS
JAMESTOWN      CLEAR     75  69  81 SE9       29.64S
BISMARCK       CLEAR     80  69  69 E14       29.57S
MINOT          CLOUDY    79  62  56 E9        29.59R
MINOT AFB      CLOUDY    74  62  66 SE9       29.58R
GARRISON         N/A     76  65  68 E7        29.59S
WILLISTON      PTCLDY    84  32  15 NW10      29.59R
DICKINSON      PTCLDY    81  53  37 SE9       29.60R
HETTINGER      PTCLDY    72  59  63 W7        29.64R
$$

 *****  OTHER OBSERVATIONS NORTHEAST NORTH DAKOTA  *****

CITY           SKY/WX    TMP DP  RH WIND       PRES   REMARKS
WALHALLA       FAIR      72  68  88 SE6       29.66R
LANGDON        CLOUDY    70  68  94 SE10      29.69R
CAVALIER       FAIR      75  66  73 S8        29.66S
GRAFTON        FAIR      70  68  94 SE7       29.69R
CANDO          FAIR      70  70 100 SE8       29.68R
FORT TOTTEN      N/A     75  66  74 SE9       29.95
ROLLA          FAIR      68  66  94 S6        29.68R
RUGBY          NOT AVBL
 ***** THE ABOVE OBSERVATIONS ARE NON NWS ARE NOT QUALITY
        CONTROLLED AND MAY MIS-REPORT RAIN FOR SNOW...
$$

 *****  OTHER OBSERVATIONS SOUTHEAST NORTH DAKOTA *****

CITY           SKY/WX    TMP DP  RH WIND       PRES   REMARKS
COOPERSTOWN    NOT AVBL
VALLEY CITY    FAIR      75  73  94 SE7       29.69S
OAKES            N/A    N/A N/A N/A MISG        N/A
GWINNER        FAIR      73  70  88 SE8       29.68S VSB 1
SHEYENNE NWR     N/A     73  69  86 SE6       29.95S
BUFFALO          N/A     73  69  89 E8          N/A
WYNDMERE         N/A     75  70  83 SE3         N/A
 ***** THE ABOVE OBSERVATIONS ARE NON NWS ARE NOT QUALITY
       CONTROLLED AND MAY MIS-REPORT RAIN FOR SNOW...
$$

  *****  WEATHER ACROSS NORTHERN MINNESOTA  *****

CITY           SKY/WX    TMP DP  RH WIND       PRES   REMARKS
FLAG ISLAND    CLEAR     73  68  83 CALM      29.72S HAZE
WARROAD        CLEAR     70  66  88 S3        29.74R
ROSEAU         CLEAR     70  63  78 S5        29.73R
HALLOCK        CLEAR     72  66  83 SE8       29.68R HAZE
THF RVR FALLS  CLEAR     70  65  84 SE7       29.73S
HALSTAD          N/A     73  68  84 SE8         N/A
FOSSTON        CLEAR     70  63  78 SE6       29.75S
BAUDETTE       CLEAR     72  64  76 S7        29.75R
WASKISH        CLEAR     66  64  94 CALM      29.78R
CROOKSTON      CLEAR     70  66  88 SE7       29.71R
$$
  *****  WEATHER ACROSS CENTRAL AND WEST MINNESOTA  *****

CITY           SKY/WX    TMP DP  RH WIND       PRES   REMARKS
BEMIDJI        CLEAR     68  65  89 SE6       29.78R
PARK RAPIDS    CLEAR     76  67  73 SE8       29.78R
WADENA         CLEAR     72  66  83 S8        29.79R
DETROIT LAKES  CLEAR     73  68  83 SE7       29.77R
MOORHEAD       CLEAR     75  70  83 SE7       29.70R
FERGUS FALLS     N/A     75  68  78 S12       29.75R
ELBOW LAKE     FAIR      74  67  78 SE14G21   29.77R
MORRIS MN      CLEAR     75  66  73 S15       29.77R
STAPLES        CLEAR     73  64  73 S9        29.80R
WHEATON        CLOUDY    79  70  73 SE10G16   29.73R
$$
  *****  WEATHER ELSEWHERE ACROSS MINNESOTA  *****

CITY           SKY/WX    TMP DP  RH WIND       PRES   REMARKS
DULUTH         PTCLDY    73  63  70 S12       29.87R
INTRNTL FALLS  CLEAR     68  62  81 SE3       29.78R
ELY            MOCLDY    70  61  73 S3        29.85R
CLOQUET        CLEAR     72  61  68 S5        29.87R
BRAINERD       CLEAR     74  65  73 S10       29.82R
HIBBING        PTCLDY    69  64  84 SE5       29.83R
ALEXANDRIA     CLEAR     77  65  66 S15G23    29.81R
SAINT CLOUD    CLEAR     74  64  71 S14G22    29.85R
MINNEAPOLIS    PTCLDY    77  59  53 S13       29.91R
$$

  *****  WEATHER ACROSS SOUTH DAKOTA  *****

CITY           SKY/WX    TMP DP  RH WIND       PRES   REMARKS
SIOUX FALLS    CLOUDY    78  63  59 S20G26    29.86R
BROOKINGS      CLOUDY    75  65  70 S16G24    29.83R
WATERTOWN      CLOUDY    78  65  63 S17G25    29.77R
HURON          MOCLDY    80  65  59 S17G25    29.70R
SISSETON         N/A     81  65  58 S16G22    29.69S
ABERDEEN       CLEAR     80  65  59 S18G26    29.65R
MITCHELL       MOCLDY    80  64  58 S20G30    29.76R
PIERRE         PTCLDY    84  60  44 SE9       29.61R
MOBRIDGE       PTCLDY    88  60  38 SE17      29.55R
RAPID CITY     PTCLDY    71  48  43 N7        29.67R
$$

  *****  SOME WEATHER IN NEARBY STATES *****

CITY           SKY/WX    TMP DP  RH WIND       PRES   REMARKS
GLASGOW MT     PTCLDY    77  33  20 NW8       29.63S
GREAT FALLS MT MOCLDY    71  19  14 W18G28    29.80R
CHEYENNE WY    CLOUDY    72  36  26 W8        30.02F
SCOTTSBLUFF NE MOCLDY    75  52  44 SE10      29.82R
OMAHA NE       MOCLDY    76  59  55 S16       29.97R
DES MOINES IA  MOCLDY    72  61  68 S9        30.04R
DAVENPORT IA   CLEAR     69  60  73 S7        30.12R
CHICAGO IL     CLEAR     68  55  63 S7        30.15R
EAU CLAIRE WI  PTCLDY    73  61  65 S12       29.96R
LA CROSSE WI   CLEAR     74  68  81 S7        30.01R
$$

  *****  SOME NATIONAL WEATHER *****

CITY           SKY/WX    TMP DP  RH WIND       PRES   REMARKS
LA GUARDIA NY  CLEAR     72  48  42 NW15      30.16R
RALEIGH NC     PTCLDY    73  61  65 N3        30.19R
ATLANTA GA     MOCLDY    79  67  66 NW6       30.18R
NEW ORLEANS LA MOCLDY    82  74  76 CALM      30.15R
OKLAHOMA CITY  MOCLDY    79  69  71 SE17      30.03R
ALBUQUERQUE NM MOCLDY    66  58  75 NE9       30.14R
SALT LAKE CITY MOCLDY    87  27  11 N6        29.90R
LOS ANGELES CA PTCLDY    69  60  73 W15       29.90S
BOISE ID       CLEAR     81  25  12 N9        29.87S
SEATTLE WA     MOSUNNY   69  46  43 NW9       30.09S
$$

*** WEATHER ACROSS MANITOBA...SASKATCHEWAN AND ONTARIO ***
                ***ONTARIO***

CITY           SKY/WX    TMP DP  RH WIND       PRES   REMARKS
GERALDTON      MOCLDY    63  57  82 S6        29.86R
THUNDER BAY    MOCLDY    70  59  68 SW7       29.85R
SIOUX LOOKOUT  PTCLDY    68  63  83 S5        29.76R
TORONTO        CLEAR     66  48  52 W6        30.19R
BIG TROUT LK   LGT RAIN  61  54  77 N5        29.76R
PICKLE LAKE    TSTM      63  61  94 NE3       29.75R
DRYDEN         CLEAR     72  63  73 S7        29.76R
KENORA         PTCLDY    73  63  68 S6        29.75R
$$
                *** MANITOBA***

CITY           SKY/WX    TMP DP  RH WIND       PRES   REMARKS
BRANDON        MOCLDY    79  59  50 SE8       29.61R
DAUPHIN        MOCLDY    70  59  68 E6        29.60S
ISLAND LAKE    MOCLDY    64  57  77 CALM      29.77
PILOT MOUND      N/A     68  61  77 SE9         N/A
THE PAS        CLOUDY    66  54  63 E5        29.72R
THOMPSON       CLOUDY    57  43  58 N5        29.81R
WINNIPEG       CLEAR     75  64  69 S10       29.66R
LYNN LAKE      MOCLDY    63  46  55 MISG      29.83R
CHURCHILL      MOCLDY    52  48  87 W3        29.79R
GILLAM         PTCLDY    63  50  63 N5        29.79R
$$
                ***SASKATCHEWAN***

CITY           SKY/WX    TMP DP  RH WIND       PRES   REMARKS
ESTEVAN        PTCLDY    70  50  49 NW8       29.58R
KINDERSLEY     PTCLDY    57  48  72 NW3       29.61R
LLOYDMINSTER   MOCLDY    57  45  62 S25G35    29.59R
PRINCE ALBERT  MOCLDY    68  57  68 E17G24    29.55S
REGINA         MOCLDY    68  45  42 NW9       29.62R
YORKTON        CLEAR     72  64  78 E15       29.56R   C1F1C2F2C3F3C4F4C5F5C6F6C7F7C8F8C9F9CaFaCbFbCcFcCdFdCe!



USA.gov is the U.S. government's official web portal to all federal, state and local government web resources and services.